Stündliche Wetter Bolshie Ozerki

Heute, 24 Januar, Sonntag

Zeit Temperatur Niederschläge Wind Luftdruck Luftfeuchtigkeit
00:00 -1°C° 0 mm 4 m/S 746 mmHg 99%
01:00 -1°C° 0 mm 5 m/S 746 mmHg 97%
02:00 -1°C° 0 mm 5 m/S 746 mmHg 97%
03:00 -1°C° 0 mm 4 m/S 746 mmHg 97%
04:00 -1°C° 0 mm 4 m/S 746 mmHg 96%
05:00 -1°C° 0 mm 4 m/S 746 mmHg 96%
06:00 -1°C° 0 mm 4 m/S 746 mmHg 96%
07:00 -1°C° 0 mm 4 m/S 746 mmHg 95%
08:00 -1°C° 0 mm 4 m/S 746 mmHg 94%
09:00 -1°C° 0 mm 5 m/S 747 mmHg 93%
10:00 -1°C° 0 mm 5 m/S 747 mmHg 95%
11:00 -1°C° 0 mm 5 m/S 747 mmHg 97%
12:00 -1°C° 0 mm 5 m/S 747 mmHg 99%
13:00 -1°C° 0.1 mm 5 m/S 747 mmHg 99%
14:00 -1°C° 0.1 mm 5 m/S 747 mmHg 99%
15:00 -1°C° 0.1 mm 5 m/S 746 mmHg 99%
16:00 -1°C° 0 mm 5 m/S 747 mmHg 98%
17:00 -1°C° 0 mm 5 m/S 747 mmHg 97%
18:00 -1°C° 0 mm 5 m/S 747 mmHg 96%
19:00 -1°C° 0.1 mm 5 m/S 747 mmHg 94%
20:00 -1°C° 0.1 mm 5 m/S 747 mmHg 92%
21:00 -1°C° 0.1 mm 5 m/S 747 mmHg 89%
22:00 -3°C° 0 mm 6 m/S 747 mmHg 89%
23:00 -3°C° 0 mm 6 m/S 747 mmHg 90%

Morgen, 25 Januar, Montag

Zeit Temperatur Niederschläge Wind Luftdruck Luftfeuchtigkeit
00:00 -3°C° 0 mm 6 m/S 747 mmHg 90%
01:00 -3°C° 0 mm 6 m/S 747 mmHg 90%
02:00 -3°C° 0 mm 6 m/S 747 mmHg 90%
03:00 -4°C° 0 mm 6 m/S 747 mmHg 91%
04:00 -4°C° 0 mm 6 m/S 746 mmHg 91%
05:00 -4°C° 0 mm 6 m/S 746 mmHg 91%
06:00 -4°C° 0 mm 6 m/S 746 mmHg 91%
07:00 -4°C° 0 mm 6 m/S 746 mmHg 92%
08:00 -4°C° 0 mm 7 m/S 746 mmHg 93%
09:00 -4°C° 0 mm 7 m/S 746 mmHg 93%
10:00 -4°C° 0 mm 7 m/S 746 mmHg 93%
11:00 -4°C° 0 mm 7 m/S 746 mmHg 93%
12:00 -4°C° 0 mm 6 m/S 746 mmHg 93%
13:00 -3°C° 0.1 mm 6 m/S 746 mmHg 93%
14:00 -3°C° 0.1 mm 6 m/S 746 mmHg 93%
15:00 -2°C° 0.1 mm 5 m/S 746 mmHg 94%
16:00 -2°C° 0 mm 5 m/S 746 mmHg 94%
17:00 -2°C° 0 mm 5 m/S 746 mmHg 94%
18:00 -2°C° 0 mm 5 m/S 746 mmHg 94%
19:00 -2°C° 0.1 mm 5 m/S 746 mmHg 95%
20:00 -4°C° 0.1 mm 5 m/S 746 mmHg 95%
21:00 -4°C° 0.1 mm 5 m/S 746 mmHg 95%
22:00 -4°C° 0.1 mm 5 m/S 745 mmHg 96%
23:00 -4°C° 0.1 mm 5 m/S 745 mmHg 96%

übermorgen, 26 Januar, Dienstag

Zeit Temperatur Niederschläge Wind Luftdruck Luftfeuchtigkeit
00:00 -4°C° 0.1 mm 6 m/S 745 mmHg 97%
01:00 -4°C° 0 mm 6 m/S 745 mmHg 96%
02:00 -4°C° 0 mm 6 m/S 745 mmHg 96%
03:00 -4°C° 0 mm 6 m/S 745 mmHg 96%
04:00 -4°C° 0 mm 6 m/S 745 mmHg 96%
05:00 -4°C° 0 mm 7 m/S 744 mmHg 95%
06:00 -4°C° 0 mm 7 m/S 744 mmHg 95%
07:00 -4°C° 0 mm 7 m/S 744 mmHg 94%
08:00 -4°C° 0 mm 7 m/S 744 mmHg 93%
09:00 -4°C° 0 mm 8 m/S 744 mmHg 92%
10:00 -4°C° 0 mm 8 m/S 743 mmHg 92%
11:00 -4°C° 0 mm 8 m/S 743 mmHg 93%
12:00 -4°C° 0 mm 8 m/S 743 mmHg 93%
13:00 -4°C° 0 mm 8 m/S 742 mmHg 93%
14:00 -4°C° 0 mm 8 m/S 742 mmHg 93%
15:00 -4°C° 0 mm 8 m/S 741 mmHg 93%
16:00 -4°C° 0.8 mm 8 m/S 740 mmHg 94%
17:00 -4°C° 0.8 mm 9 m/S 740 mmHg 95%
18:00 -3°C° 0.8 mm 10 m/S 739 mmHg 96%
19:00 -3°C° 0.6 mm 10 m/S 739 mmHg 97%
20:00 -3°C° 0.6 mm 10 m/S 739 mmHg 98%
21:00 -2°C° 0.6 mm 10 m/S 739 mmHg 99%
22:00 -1°C° 0.1 mm 9 m/S 739 mmHg 97%
23:00 -2°C° 0.1 mm 8 m/S 739 mmHg 94%

27 Januar, Mittwoch

Zeit Temperatur Niederschläge Wind Luftdruck Luftfeuchtigkeit
00:00 -2°C° 0.1 mm 8 m/S 740 mmHg 91%
01:00 -2°C° 0 mm 8 m/S 740 mmHg 89%
02:00 -3°C° 0 mm 7 m/S 740 mmHg 87%
03:00 -3°C° 0 mm 7 m/S 740 mmHg 84%
04:00 -4°C° 0 mm 7 m/S 740 mmHg 84%
05:00 -4°C° 0 mm 7 m/S 740 mmHg 84%
06:00 -6°C° 0 mm 7 m/S 741 mmHg 84%
07:00 -6°C° 0 mm 7 m/S 741 mmHg 84%
08:00 -6°C° 0 mm 7 m/S 741 mmHg 84%
09:00 -6°C° 0 mm 7 m/S 741 mmHg 83%
10:00 -6°C° 0 mm 7 m/S 742 mmHg 82%
11:00 -4°C° 0 mm 7 m/S 742 mmHg 82%
12:00 -4°C° 0 mm 7 m/S 742 mmHg 81%
13:00 -4°C° 0 mm 7 m/S 742 mmHg 81%
14:00 -4°C° 0 mm 6 m/S 742 mmHg 82%
15:00 -4°C° 0 mm 6 m/S 742 mmHg 83%
16:00 -4°C° 0 mm 6 m/S 742 mmHg 84%
17:00 -5°C° 0 mm 6 m/S 742 mmHg 85%
18:00 -5°C° 0 mm 5 m/S 742 mmHg 86%
19:00 -5°C° 0 mm 5 m/S 742 mmHg 87%
20:00 -5°C° 0 mm 5 m/S 742 mmHg 88%
21:00 -5°C° 0 mm 4 m/S 743 mmHg 89%
22:00 -5°C° 0 mm 4 m/S 743 mmHg 89%
23:00 -5°C° 0 mm 4 m/S 742 mmHg 90%

28 Januar, Donnerstag

Zeit Temperatur Niederschläge Wind Luftdruck Luftfeuchtigkeit
00:00 -5°C° 0 mm 3 m/S 742 mmHg 91%
01:00 -5°C° 0 mm 3 m/S 742 mmHg 91%
02:00 -4°C° 0 mm 2 m/S 742 mmHg 91%
03:00 -4°C° 0 mm 2 m/S 742 mmHg 91%
04:00 -4°C° 0 mm 2 m/S 741 mmHg 90%
05:00 -2°C° 0 mm 1 m/S 741 mmHg 89%
06:00 -2°C° 0 mm 1 m/S 741 mmHg 89%
07:00 -2°C° 0 mm 1 m/S 741 mmHg 89%
08:00 -3°C° 0 mm 1 m/S 741 mmHg 89%
09:00 -3°C° 0 mm 1 m/S 741 mmHg 89%
10:00 -2°C° 0 mm 1 m/S 741 mmHg 90%
11:00 -2°C° 0 mm 1 m/S 741 mmHg 90%
12:00 -2°C° 0 mm 0 m/S 740 mmHg 91%
13:00 -1°C° 0 mm 1 m/S 740 mmHg 91%
14:00 -1°C° 0 mm 1 m/S 740 mmHg 91%
15:00 -1°C° 0 mm 1 m/S 740 mmHg 92%
16:00 -1°C° 0 mm 1 m/S 740 mmHg 92%
17:00 -2°C° 0 mm 1 m/S 740 mmHg 92%
18:00 -2°C° 0 mm 1 m/S 740 mmHg 93%
19:00 -2°C° 0 mm 1 m/S 739 mmHg 93%
20:00 -3°C° 0 mm 1 m/S 739 mmHg 94%
21:00 -3°C° 0 mm 1 m/S 739 mmHg 95%

29 Januar, Freitag

Zeit Temperatur Niederschläge Wind Luftdruck Luftfeuchtigkeit
Mehr zeigen

Wir brauchen deine Erlaubnis

Meteoprog und unser Service Anbieter werden persönliche Daten aufbewahren, so wie Cookies, Geräte Bezeichnung oder ähnliche Technologien von deinem Gerät und Prozess, so wie Persönliche Daten Inhalte und Werbungen, genauso wie social Media und den Verkehr zu analysieren.

  • Aufbewahrung und/oder Zugang zu deiner Geräte Informationen.

    Cookies, Geräte Bezeichnung oder andere Informationen, können aufbewahrt oder Zugang zu deinem Gerät erhalten, für den Grund, der oben angegeben wird.

  • Personalisierte Werbung und Inhalte, Messungen, Einblick in das Publikum und Produkt Entwicklung.

    Werbungen und Inhalte können personalisiert werden, basierend auf ein Profil. Mehr Daten können besser personalisierte Werbungen und Inhalte hinzufügen. Werbung und Inhalte können gezeigt und gemessen werden. Einblicke über das Publikum, welche die Werbung gesehen haben und den Inhalt, können abgeleitet werden. So wie Daten können genutzt werden, um es zu verbessern oder die Benutzer Erfahrung zu verbessern das System und die Software.

Wenn du “Ich stimme zu” klickst, erlaubst du uns, die Cookies zu benutzen die Geräte Bezeichnung, den Web oder ähnliche Technologien zu benutzen. Deine Settings, können in deinem Gerät bei deinem Browser geändert werden.

Für den bestimmten Zweck, berechtigten Interessen beruhen darauf, mehr als auf den Inhalt. Du kannst mehr darüber in unseren Privaten und Cookie Politik lesen.